sat.trackr.live / text

‹ back to catalog

STARLINK-5012

NORAD 53918 · 2022-119AJ

PAYLOAD ACTIVE UNKNOWN

§ Identity

Operator
Country
US
Launch date
2022-09-24
Launch site
AFETR
Launch vehicle
Mass (kg)
RCS (m²)

Purposes: comms

External: N2YO · Heavens-Above · Gunter

§ Orbital elements

Epoch: 2026-05-24T18:47:00.195360Z

Period
95.44 min
Inclination
53.2178°
Eccentricity
0.0000151
Mean motion
15.08848136 rev/d
Perigee alt
539.6 km
Apogee alt
539.8 km
Semi-major
6,917.9 km
B*
8.4299e-5
RAAN
332.4287°
Arg perigee
194.6195°
Mean anomaly
165.4793°
Rev number
20,331

§ Raw data

STARLINK-50121 53918U 22119AJ  26144.78264115  .00001055  00000+0  84299-4 0  99982 53918  53.2178 332.4287 0000151 194.6195 165.4793 15.08848136203313

JSON: /api/v1/satellites/53918 · /tle

For live sub-satellite position, see the globe view (requires WebGL).

§ Visibility from observer

Set your observer location to see the next 7 days of passes ≥ 10°. The values pass through the URL so the page stays shareable.

No JS? Fill the form by hand. The geolocation button needs JavaScript.